Regional Weather Roundup
Issued by NWS

Home | Current Version | Previous Version | Text Only | Print | Product List | Glossary Off
Versions: 1 2 3 4 5 6 7 8 9 10 11 12 13 14 15 16 17 18 19 20 21 22 23 24 25 26 27 28 29 30 31 32 33 34 35 36 37 38 39 40 41 42 43 44 45 46 47 48 49 50

000
ASUS45 KBOU 190707
RWRCO

WEATHER ROUNDUP FOR COLORADO
NATIONAL WEATHER SERVICE DENVER/BOULDER CO
1200 AM MST SUN FEB 19 2017

NOTE: "FAIR" INDICATES FEW OR NO CLOUDS BELOW 12000 FEET WITH NO
SIGNIFICANT WEATHER AND/OR OBSTRUCTIONS TO VISIBILITY.

COZ001>005-013-030-031-190800-
...NORTHWEST COLORADO...

CITY           SKY/WX    TMP DP  RH WIND       PRES   REMARKS
CRAIG          FAIR      26  23  88 W3        29.75F
HAYDEN         FAIR      32  27  80 SE3       29.75F
MEEKER         FAIR      30  28  92 CALM      29.74F
MOUNT WERNER   NOT AVBL
STEAMBOAT SPGS NOT AVBL
WALDEN         NOT AVBL
$$

COZ006>008-011-190800-
...WEST CENTRAL VALLEYS...

CITY           SKY/WX    TMP DP  RH WIND       PRES   REMARKS
GRAND JUNCTION FAIR      38  37  97 NE5       29.72S
MONTROSE       FAIR      34  31  88 SE6       29.78R WCI  29
EAGLE          FAIR      32  28  85 CALM      29.78S
RIFLE          FAIR      33  30  88 SE3       29.74S
DELTA          FAIR      37  35  90 NE5       29.76R
NUCLA          CLOUDY    39  34  81 SE5       29.79R
$$

COZ017>023-064>068-190800-
...SOUTHWEST COLORADO...

CITY           SKY/WX    TMP DP  RH WIND       PRES   REMARKS
DURANGO        CLOUDY    40  28  62 NE5       29.81R
CORTEZ         CLOUDY    47  29  49 SE10      29.76S
PAGOSA SPRINGS CLOUDY    37  29  73 S3        29.85R
TELLURIDE      FAIR      39  16  39 SE3       29.84R
WOLF CREEK PAS CLOUDY    25  19  80 S20G31    29.97S WCI  11
$$

COZ009-010-012-014-032>034-037-058>063-190800-
...CENTRAL COLORADO...

CITY           SKY/WX    TMP DP  RH WIND       PRES   REMARKS
ASPEN          FAIR      30  26  85 S5        29.76S WCI  25
BUENA VISTA    FAIR      37  28  70 W5        29.79S
COPPER MTN     FAIR      34  14  44 MISG      29.85F
BERTHOUD PASS  FAIR      23  14  68 W14G20    29.88S WCI  11
COTTONWOOD PAS FAIR      41  14  33 CALM      29.85R
GUNNISON       FAIR      25  22  88 N3        29.82R
KREMMLING      FAIR      34  30  86 CALM      29.78S
LEADVILLE      FAIR      31  15  52 SE5       29.80F WCI  26
MONARCH PASS   MOCLDY    28  21  74 SW31G38   30.00F WCI  12
SALIDA         FAIR      44  30  57 SW6       29.86S
SUNLIGHT       NOT AVBL
WILKERSON PASS FAIR      30  21  69 S3        29.91S
$$

COZ069>075-190800-
...SAN LUIS VALLEY/SANGRE DE CRISTO MOUNTAINS...

CITY           SKY/WX    TMP DP  RH WIND       PRES   REMARKS
ALAMOSA        MOCLDY    36  31  82 SE9       29.82S
LA VETA PASS   FAIR      30  25  80 NE21G32   29.88S WCI  17
SAGUACHE       CLOUDY    32  30  93 CALM      29.85R
$$

COZ035-036-038>040-190800-
...NORTHERN COLORADO FRONT RANGE...

CITY           SKY/WX    TMP DP  RH WIND       PRES   REMARKS
DENVER INTL AP MOCLDY    43  21  41 SW9       29.67S
DMNS CITY PARK   N/A     44  23  43 E9        29.66F
AURORA         MOCLDY    45  22  39 S12       29.67F
FRONT RANGE AP FAIR      48  23  37 S17       29.67F
ERIE MUNI ARPT FAIR      36  23  58 CALM      29.66F
BOULDER MUN AP FAIR      41  25  52 CALM      29.65F
CENTENNIAL     MOCLDY    45  22  40 S9        29.68F
BROOMFIELD     FAIR      46  23  39 CALM      29.67F
FORT COLLINS   FAIR      43  23  45 NE7       29.66S
LONGMONT       FAIR      42  26  52 W3        29.68S
$$

COZ041-046-047-076>085-087-088-190800-
...PIKES PEAK/PALMER DIVIDE AND SOUTHERN FOOTHILLS...

CITY           SKY/WX    TMP DP  RH WIND       PRES   REMARKS
COLO. SPRINGS  MOCLDY    37  18  46 NE5       29.74S
A. F. ACADEMY  FAIR      32  19  58 N7        29.74R WCI  25
SCHRIEVER AFB  FAIR      40  20  45 E9        29.74S
ELLICOTT       FAIR     N/A N/A N/A S14       29.73F
FALCON         NOT AVBL
FORT CARSON    FAIR      38  21  50 NW8       29.72S
LIMON          FAIR      38  23  55 MISG      29.73S
MONUMENT HILL  FAIR      36  21  55 S12       29.75S
TRINIDAD       FAIR      55  26  32 SW9G17    29.76S
$$

COZ042>045-048>051-090-091-190800-
...NORTHEAST COLORADO...

CITY           SKY/WX    TMP DP  RH WIND       PRES   REMARKS
GREELEY ARPT   FAIR      37  21  52 NW7       29.66F
AKRON          FAIR      51  24  34 S16       29.67F
BURLINGTON     FAIR      50  31  48 S24       29.71F
WRAY           NOT AVBL
STERLING       FAIR      45  27  49 SW6       29.66R
HOLYOKE        FAIR      43  32  65 SE7       29.70S
FORT MORGAN    FAIR      46  20  35 CALM      29.68S
$$

COZ086-089-092>099-190800-
...SOUTHEAST COLORADO...

CITY           SKY/WX    TMP DP  RH WIND       PRES   REMARKS
PUEBLO         FAIR      36  24  62 NW8       29.69F
LA JUNTA       FAIR      55  29  36 SE13      29.72S
LAMAR          FAIR      52  33  48 S17       29.74R
SPRINGFIELD      N/A     45  36  70 S16       29.78S
$$



USA.gov is the U.S. government's official web portal to all federal, state and local government web resources and services.